Regional Weather Roundup
Issued by NWS Memphis, TN

Home | Current Version | Previous Version | Text Only | Print | Product List | Glossary On
Versions: 1 2 3 4 5 6 7 8 9 10 11 12 13 14 15 16 17 18 19 20 21 22 23 24 25 26 27 28 29 30 31 32 33 34 35 36 37 38 39 40 41 42 43 44 45 46 47 48 49 50
000
ASUS44 KMEG 031610
RWRMEG
MEMPHIS CWA HOURLY WEATHER ROUNDUP
NATIONAL WEATHER SERVICE MEMPHIS TN
1000 AM CST TUE MAR 03 2015

...WEST TENNESSEE...

CITY           SKY/WX    TMP DP  RH WIND       PRES   REMARKS
MEMPHIS INTL   DRZL/FOG  52  50  93 SW12      30.06F VSB 1/2
NWS MEMPHIS      N/A     51 N/A N/A MISG        N/A
JACKSON        CLOUDY    53  50  89 S13       30.06F
LEXINGTON      CLOUDY    52  52 100 S10       30.06F
SAVANNAH       CLOUDY    52  52 100 S7        30.09F
DYERSBURG      CLOUDY    48  37  66 S5        30.05F
UNION CITY     CLOUDY    46  46 100 S9        30.00S
PARIS          CLOUDY    46  46 100 S13       30.03F


...EASTERN ARKANSAS...

CITY           SKY/WX    TMP DP  RH WIND       PRES   REMARKS
JONESBORO      CLOUDY    39  39 100 SW12      30.03F FOG     WCI  32
WEST MEMPHIS   CLOUDY    46  46 100 S10       30.06S FOG
BATESVILLE     CLOUDY    39  36  87 S7        30.03R WCI  34
NEWPORT        LGT RAIN  37  37 100 S9        30.05F VSB 1/2 WCI  30
WALNUT RIDGE   CLOUDY    37  34  87 S15       30.01F WCI  28
BLYTHEVILLE    FOG       43  43 100 S10       30.03F VSB 1
NW BLYTHEVILLE FOG       45  45 100 SW13      30.03  VSB 1/2
SEARCY           N/A     39  37  93 S6        30.06F FOG     WCI  35
STUTTGART      CLOUDY    39  37  93 S6        30.07F VSB 1/2 WCI  35
PINE BLUFF     CLOUDY    39  39 100 CALM      30.07F FOG
MONTICELLO     CLOUDY    47  46  97 S3        30.07S FOG


...NORTH MISSISSIPPI...

CITY           SKY/WX    TMP DP  RH WIND       PRES   REMARKS
TUPELO         FOG       52  51  97 SW10      30.12S VSB 1/2
OXFORD         FOG       50  50 100 S3        30.11S VSB 3/4
OLIVE BRANCH   DRZL/FOG  50  50 100 S8        30.07F VSB 1/2
TUNICA         FOG       46  46 100 S6        30.08F VSB 1/2
CLARKSDALE     CLOUDY    48  48 100 S8        30.09F VSB 1/4
GREENWOOD      CLOUDY    61  59  93 S6        30.09S
COLUMBUS       FOG       55  55 100 S6        30.13S VSB 1
STARKVILLE     CLOUDY    54  54 100 CALM      30.13S FOG
GOLDEN TRIANGL CLOUDY    54  54 100 SE7       30.13S FOG


...SOUTHEAST MISSOURI...

CITY           SKY/WX    TMP DP  RH WIND       PRES   REMARKS
WEST PLAINS    FOG       38  38 100 S6        29.91F VSB 1/4 WCI  33
POPLAR BLUFF   FOG       35  33  92 SW9       29.98F VSB 3/4 WCI  28
CAPE GIRARDEAU FOG       36  36 100 SW10      29.97F VSB 3/4 WCI  28


...NORTHWEST ALABAMA...

CITY           SKY/WX    TMP DP  RH WIND       PRES   REMARKS
MUSCLE SHOALS  CLOUDY    55  52  89 SE5       30.12F FOG


...MIDDLE TENNESSEE...

CITY           SKY/WX    TMP DP  RH WIND       PRES   REMARKS
NASHVILLE      CLOUDY    56  52  86 S14G21    30.08F
CLARKSVILLE    CLOUDY    54  51  90 S17       30.02F
COLUMBIA       CLOUDY   N/A N/A N/A S8        30.07F


...WESTERN KENTUCKY...

CITY           SKY/WX    TMP DP  RH WIND       PRES   REMARKS
PADUCAH        FOG       45  44  97 SW12      29.98F VSB 1/2
FORT CAMPBELL  CLOUDY    54  50  87 S15       30.01S


...CENTRAL ARKANSAS...

CITY           SKY/WX    TMP DP  RH WIND       PRES   REMARKS
LITTLE ROCK    CLOUDY    41  37  86 SW7       30.06F FOG


SKY/WX REPORTED AS FAIR MEANS FEW OR NO CLOUDS BELOW
12 THOUSAND FEET.



USA.gov is the U.S. government's official web portal to all federal, state and local government web resources and services.